User: anonymous   Login
Location: Cheching
(60.0667°N, 164.2167°W)
Time: 10:18:58
(UTC+00:00)
Language:

POLYITAN 1 - Orbit

View from above orbital plane
View from above orbital plane
View from above satellite
View from above satellite

Ground track
Ground track

The orbit data is extracted from the following two-line orbital elements,

1 40042U 14033AJ  21016.75001351  .00000458  00000-0  54555-4 0  9998
2 40042  97.9352 307.8076 0013642 313.0831  46.9243 14.89083727356734
Epoch (UTC): 16 January 2021 18:00:01
Eccentricity: 0.0013642
inclination: 97.9352°
perigee height: 591 km
apogee height: 610 km
right ascension of ascending node: 307.8076°
argument of perigee: 313.0831°
revolutions per day: 14.89083727
mean anomaly at epoch: 46.9243°
orbit number at epoch: 35673

The dashed part of the orbit path shows where the satellite is in the earth's shadow,  

DLR